Location: Devore Heights
(34.2372°N, 117.4156°W)
Time: 04:02:42
(UTC+00:00)

A-11 Canister half - Pass Details

Date: 21 September 2024
Orbit: 1515 x 1684 km, 47.2° (Epoch: 08 October)

Event Time Altitude Azimuth Distance (km) Brightness Sun altitude
Rises 04:31:28 0° 295° (WNW) 4,702 12.6 -33.4°
Reaches altitude 10° 04:34:53 10° 303° (WNW) 3,702 11.8 -34.0°
Maximum altitude 04:43:25 39° 10° (N) 2,141 9.8 -35.5°
Enters shadow 04:45:21 36° 35° (NE) 2,246 9.7 -35.9°
